Location: *
(43.9905°S, 176.4941°W)
Time: 02:40:19
(UTC+00:00)

SPOT 1/Viking Rocket - Pass Details

Date: 08 December 2019
Orbit: 776 x 795 km, 98.5° (Epoch: 25 January)

Event Time Altitude Azimuth Distance (km) Brightness Sun altitude
Rises 09:22:56 0° 158° (SSE) 3,301 7.3 -16.5°
Reaches altitude 10° 09:25:30 10° 148° (SSE) 2,367 6.4 -16.8°
Maximum altitude 09:30:12 33° 84° (E) 1,306 4.4 -17.2°
Enters shadow 09:31:45 28° 51° (NE) 1,457 4.4 -17.3°
